Location: Sternwarte ZA, Rosenfeld-Brittheim
(48.2889°N, 8.6789°E)
Time: 20:13:46
(UTC+02:00)

ISS - Pass Details

Date: 16 July 2019
Orbit: 409 x 418 km, 51.6° (Epoch: 20 July)

Event Time Altitude Azimuth Distance (km) Brightness Sun altitude
Rises 03:06:44 0° 287° (WNW) 2,349 0.0 -17.1°
Reaches altitude 10° 03:08:52 10° 292° (WNW) 1,484 -1.0 -16.9°
Maximum altitude 03:12:07 51° 10° (N) 528 -2.9 -16.7°
Drops below altitude 10° 03:15:22 10° 88° (E) 1,477 -0.6 -16.5°
Sets 03:17:29 0° 93° (E) 2,337 0.3 -16.3°
